Weather in Rasshevatskaya

Russia / Stavropol Krai     45°34′19″N   41°01′57″E
temp.,
°C
wind,
m/s
gust,
m/s
humid.,
%
clouds,
%
prec.,
mm/h
press.,
hPa
HPBL,
m
18 may, tue
tue1800:00+14w5996100 3.6 1009274
03:00+14wsw61394100 4.4 1010505
06:00+14w31093100 0.3 1011566
09:00+16w4784100 0.3 1011635
12:00+19w4668100 0.0 10111267
15:00+22w45603 0.2 10111516
18:00+20wsw23750 0.3 1011448
21:00+16sse238463 0.3 101122
19 may, wed
wed1900:00+15ese348623 0.0 101058
03:00+15ese3982100 0.0 1008187
06:00+14wnw61296100 4.7 1009457
09:00+16sw238786 5.8 1010637
12:00+14wsw7138968 7.4 1014786
15:00+19wsw914700 7.5 10131647
18:00+16wsw9167494 0.0 10141244
21:00+14wsw6167110 0.0 1015848
20 may, thu
thu2000:00+12wsw4157035 0.0 1016539
03:00+10s477665 0.0 1015110
06:00+12s358649 0.0 1016109
09:00+18s33635 0.0 1016646
12:00+21sw12501 0.0 10151162
15:00+23ene23475 0.0 10141324
18:00+20ne47690 0.0 1013188
21:00+16ene511744 0.0 1013180
21 may, fri
fri2100:00+15e511831 0.0 1011181
03:00+14e511791 0.0 1011178
06:00+15e4117799 0.0 1011205
09:00+21ese57650 0.0 1009363
12:00+26ese710595 0.0 1008695
15:00+27ese711645 0.0 1007861
18:00+25ese611726 0.0 1007414
21:00+20e59756 0.0 1007165
22 may, sat
sat2200:00+18e3474100 0.0 100750
03:00+16e4679100 0.0 100689
06:00+17sse2385100 0.0 100785
09:00+20ene3682100 0.0 1006173
12:00+26wnw4469100 0.0 1008656
15:00+28nne456299 0.0 1007656
18:00+26ene3776100 0.0 1007229
21:00+23ne1175100 0.0 100811